This is the latest recevied weather packets stored in our database for station/object 9W2CHF-4. If no packets are shown the sender has not sent any weather packets the latest 10 day(s).
| Time | Temp. | Humidity | Pressure | Rain* | Wind** | Luminosity | Snow |
|---|---|---|---|---|---|---|---|
| 1777559005 | 34.44° C | 77% | 1011.6 hPa | - | - | - | - |
| 1777558105 | 34.44° C | 77% | 1011.3 hPa | - | - | - | - |
| 1777557205 | 34.44° C | 77% | 1011.2 hPa | - | - | - | - |
| 1777556305 | 33.89° C | 80% | 1010.9 hPa | - | - | - | - |
| 1777555405 | 35° C | 72% | 1010.6 hPa | - | - | - | - |
| 1777554505 | 34.44° C | 72% | 1010.4 hPa | - | - | - | - |
| 1777553604 | 33.89° C | 72% | 1009.9 hPa | - | - | - | - |
| 1777552703 | 33.89° C | 71% | 1009.7 hPa | - | - | - | - |
| 1777551803 | 34.44° C | 70% | 1009.4 hPa | - | - | - | - |
| 1777550903 | 34.44° C | 67% | 1009.2 hPa | - | - | - | - |
| 1777550003 | 33.89° C | 65% | 1009.3 hPa | - | - | - | - |
| 1777549102 | 33.89° C | 55% | 1009.2 hPa | - | - | - | - |
| 1777548201 | 33.89° C | 57% | 1009 hPa | - | - | - | - |
| 1777547301 | 33.89° C | 59% | 1008.9 hPa | - | - | - | - |
| 1777546401 | 33.89° C | 54% | 1008.7 hPa | - | - | - | - |
| 1777545501 | 33.89° C | 54% | 1008.6 hPa | - | - | - | - |
| 1777544601 | 33.89° C | 55% | 1008.4 hPa | - | - | - | - |
| 1777543700 | 33.89° C | 55% | 1008.4 hPa | - | - | - | - |
| 1777542800 | 34.44° C | 57% | 1008.4 hPa | - | - | - | - |
| 1777541899 | 34.44° C | 55% | 1008.2 hPa | - | - | - | - |
| 1777540999 | 33.89° C | 58% | 1008 hPa | - | - | - | - |
| 1777540099 | 34.44° C | 59% | 1007.9 hPa | - | - | - | - |
| 1777539205 | 35° C | 57% | 1008 hPa | - | - | - | - |
| 1777538305 | 35° C | 60% | 1008 hPa | - | - | - | - |
| 1777537405 | 34.44° C | 59% | 1007.8 hPa | - | - | - | - |
* Rain since midnight (hover to see other rain measurements)
** Current wind speed in m/s (hover to see current wind gust speed)